    Observer details:
    413 Siding Spring.  Observer R. H. McNaught.  1.0-m f/8 reflector + CCD.
    428 Reedy Creek.  Observer J. Broughton.  0.51-m f/2.7 reflector + CCD.
    448 Desert Moon Observatory.  Observer B. L. Stevens.  0.3-m
        Schmidt-Cassegrain + CCD.
    651 Grasslands Observatory, Tucson.  Observer J. E. McGaha.  0.62-m f/5.1
        Newtonian reflector + CCD.
    673 Table Mountain Observatory, Wrightwood.  Observers J. Young, D. Mayes.
        0.6-m reflector + CCD.
    734 Farpoint Observatory.  Observers G. Hug, J. Burgardt.  Measurers G. Hug,
        B. Martin.  0.7-m reflector + CCD.
    854 Sabino Canyon Observatory, Tucson.  Observer J. E. McGaha.  0.36-m f/10.0
        Schmidt-Cassegrain + CCD.
    E12 Siding Spring Survey.  Observers G. J. Garradd, E. J. Christensen.
        Measurers E. C. Beshore, C. M. Casey, E. J. Christensen, G. J. Garradd,
        A. D. Grauer, R. E. Hill, S. M. Larson, R. H. McNaught.  0.5-m Uppsala
        Schmidt + CCD.
    I77 CEAMIG-REA Observatory, Belo Horizonte.  Observers C. Jacques, E. Pimentel.
        Measurer C. Jacques.  0.30-m f/3.0 Schmidt-Cassegrain + CCD.
    J87 La Canada.  Observer J. Lacruz.  0.30-m Schmidt-Cassegrain + CCD.
    
    Orbital elements:
    2005 NP82
    Epoch 2005 July 9.0 TT = JDT 2453560.5                  MPC
    M 337.72495              (2000.0)            P               Q
    n   0.06636411     Peri.  253.18714     -0.35930717     -0.68849508
    a   6.0419972      Node   123.72013     -0.25067878     +0.72145496
    e   0.4900761      Incl.  130.76405     -0.89892075     +0.07400849
    P  14.9            H   13.9           G   0.15
    From 100 observations 2005 July 6-17.
    
    Ephemeris:
    2005 NP82                a,e,i = 6.04, 0.49, 131                 q = 3.0810
    Date    TT    R. A. (2000) Decl.     Delta      r     Elong.  Phase     V
    2005 07 09    20 26.48   -28 19.7    2.810    3.791   162.4     4.7    19.4
    2005 07 19    20 06.93   -30 59.8    2.752    3.756   169.4     2.8    19.3
    2005 07 29    19 45.66   -33 25.5    2.742    3.721   161.9     4.9    19.4
    2005 08 08    19 24.03   -35 27.6    2.779    3.687   149.2     8.1    19.5
    2005 08 18    19 03.56   -37 02.2    2.856    3.653   136.0    11.1    19.7
    2005 08 28    18 45.49   -38 11.1    2.967    3.620   123.2    13.5    19.8
    2005 09 07    18 30.58   -38 59.4    3.102    3.587   110.9    15.2    20.0
    2005 09 17    18 19.11   -39 33.6    3.251    3.555    99.3    16.2    20.1
    2005 09 27    18 10.99   -39 59.4    3.407    3.524    88.4    16.5    20.2
    2005 10 07    18 05.91   -40 21.3    3.562    3.493    78.0    16.3    20.3
    2005 10 17    18 03.49   -40 42.3    3.709    3.463    68.1    15.5    20.3
    
    Timothy B. Spahr             (C) Copyright 2005 MPC           M.P.E.C. 2005-O03
    

    Read MPEC 2005-O02 Read MPEC 2005-O04


    MPEC number:

    Enter an MPEC number in one of the following forms:

    • 1997-B01 (the full form)
    • J97B01 (the packed version of the full form)
    • B01 (the abbreviated form)